Weather History for Pueblo, CO

Change the Weather History Date:

Monday, March 4, 2013

  Actual Average Record
Temperature  
Mean Temperature 33 °F 39 °F  
Max Temperature 51 °F 56 °F 77 °F (2009)
Min Temperature 14 °F 22 °F -8 °F (1948)
Degree Days  
Heating Degree Days 32 26  
Month to date heating degree days 99 106  
Since 1 July heating degree days 4336 4409  
Cooling Degree Days 0 0  
Month to date cooling degree days 0 0  
Year to date cooling degree days 0 0  
Moisture  
Dew Point 24 °F    
Average Humidity 63    
Maximum Humidity 92    
Minimum Humidity 33    
Precipitation  
Precipitation 0.09 in 0.02 in 0.77 in (1992)
Month to date precipitation 0.09 0.09  
Year to date precipitation 0.78 0.74  
Snow  
Snow 3.50 in 0.20 in 3.50 in (2013)
Month to date snowfall 3.5 0.6  
Since 1 July snowfall 18.2 22.4  
Snow Depth 0.00 in    
Sea Level Pressure  
Sea Level Pressure 29.89 in    
Wind  
Wind Speed 13 mph (NNE)    
Max Wind Speed 45 mph    
Max Gust Speed 52 mph    
Visibility 7 miles    
Events Fog , Snow    
T = Trace of Precipitation, MM = Missing Value Source: NWS Daily Summary

Daily Weather History Graph

Daily Weather History Graph

Search for Another Location

Airport:

Trip Planner

Search our weather history database for the weather conditions in past years. The results will help you decide how hot, cold, wet, or windy it might be!

Date:

Astronomy

Mar. 04, 2013 Rise Set
Actual Time 6:25 AM MST 5:54 PM MST
Civil Twilight 5:58 AM MST 6:21 PM MST
Nautical Twilight 5:28 AM MST 6:51 PM MST
Astronomical Twilight 4:57 AM MST 7:22 PM MST
Moon 12:33 AM MST (3/4) 10:42 AM MST (3/4)
Length of Visible Light 12h 22m
Length of Day
11h 29m
Waning Gibbous, 51% of the Moon is Illuminated
Mar 4
Waning Gibbous
Mar 4
Last Quarter
Mar 11
New
Mar 19
First Quarter
Mar 27
Full

Hourly Weather History & Observations

Time (MST) Temp. Windchill Dew Point Humidity Pressure Visibility Wind Dir Wind Speed Gust Speed Precip Events Conditions
12:53 AM 46.0 °F 42.5 °F 23.0 °F 40% 29.57 in 10.0 mi West 6.9 mph - N/A   Clear
1:53 AM 50.0 °F - 24.1 °F 36% 29.55 in 10.0 mi WNW 18.4 mph 24.2 mph N/A   Clear
2:53 AM 43.0 °F 38.2 °F 24.1 °F 47% 29.56 in 10.0 mi WNW 8.1 mph - N/A   Clear
3:53 AM 48.9 °F - 25.0 °F 39% 29.54 in 10.0 mi NW 23.0 mph 28.8 mph N/A   Clear
4:53 AM 46.0 °F 39.3 °F 26.1 °F 46% 29.57 in 10.0 mi WNW 16.1 mph - N/A   Clear
5:53 AM 44.1 °F 40.8 °F 26.1 °F 49% 29.59 in 10.0 mi SW 5.8 mph - N/A   Clear
6:53 AM 45.0 °F - 26.1 °F 48% 29.62 in 10.0 mi Calm Calm - N/A   Clear
7:42 AM 44.6 °F 35.3 °F 26.6 °F 49% 29.74 in 10.0 mi ENE 26.5 mph 31.1 mph N/A   Scattered Clouds
7:53 AM 43.0 °F 35.1 °F 27.0 °F 53% 29.70 in 10.0 mi NNE 17.3 mph 29.9 mph N/A   Scattered Clouds
8:53 AM 42.1 °F 34.5 °F 23.0 °F 47% 29.73 in 10.0 mi North 15.0 mph - N/A   Clear
9:53 AM 44.1 °F 39.5 °F 23.0 °F 43% 29.74 in 10.0 mi NNE 8.1 mph - N/A   Clear
10:53 AM 46.9 °F - 21.9 °F 37% 29.73 in 10.0 mi ENE 11.5 mph 19.6 mph N/A   Mostly Cloudy
11:53 AM 48.9 °F - 21.9 °F 35% 29.72 in 10.0 mi SE 12.7 mph - N/A   Mostly Cloudy
12:53 PM 50.0 °F - 23.0 °F 35% 29.71 in 10.0 mi East 16.1 mph 25.3 mph N/A   Clear
1:53 PM 50.0 °F - 23.0 °F 35% 29.71 in 10.0 mi East 17.3 mph 25.3 mph N/A   Overcast
2:53 PM 46.0 °F 37.2 °F 21.9 °F 39% 29.79 in 10.0 mi NE 26.5 mph 33.4 mph N/A   Overcast
3:53 PM 36.0 °F 22.2 °F 19.9 °F 52% 29.90 in 10.0 mi NNE 34.5 mph 43.7 mph N/A   Overcast
4:31 PM 30.2 °F 13.5 °F 24.8 °F 80% 29.96 in 1.8 mi NNE 39.1 mph 51.8 mph N/A Snow Light Snow
4:40 PM 30.2 °F 15.7 °F 24.8 °F 80% 29.99 in 0.8 mi NNE 27.6 mph 43.7 mph 0.00 in Snow Light Snow
4:53 PM 28.0 °F 11.1 °F 25.0 °F 88% 30.02 in 0.2 mi NNE 35.7 mph 43.7 mph 0.00 in Fog , Snow Snow
5:06 PM 26.6 °F 9.3 °F 24.8 °F 93% 30.04 in 0.2 mi NNE 34.5 mph 41.4 mph 0.00 in Fog , Snow Heavy Snow
5:19 PM 26.6 °F 12.4 °F 24.8 °F 93% 30.05 in 0.2 mi NNE 21.9 mph - 0.00 in Fog , Snow Heavy Snow
5:53 PM 26.1 °F 16.8 °F 24.1 °F 92% 30.12 in 0.2 mi NE 9.2 mph - 0.04 in Fog , Snow Heavy Snow
6:18 PM 26.6 °F 20.0 °F 24.8 °F 93% 30.11 in 0.5 mi NE 5.8 mph - 0.02 in Fog , Snow Snow
6:32 PM 26.6 °F - 24.8 °F 93% 30.12 in 1.0 mi Calm Calm - 0.05 in Snow Light Snow
6:36 PM 26.6 °F - 24.8 °F 93% 30.13 in 2.0 mi Calm Calm - 0.05 in Snow Light Snow
6:44 PM 26.6 °F 21.2 °F 23.0 °F 86% 30.14 in 8.0 mi South 4.6 mph - 0.05 in   Overcast
6:53 PM 26.1 °F 18.4 °F 23.0 °F 88% 30.17 in 10.0 mi SSW 6.9 mph - 0.05 in   Overcast
7:53 PM 26.1 °F 18.4 °F 23.0 °F 88% 30.22 in 10.0 mi South 6.9 mph - N/A   Overcast
8:53 PM 26.1 °F - 21.9 °F 84% 30.27 in 10.0 mi Calm Calm - N/A   Overcast
9:53 PM 26.1 °F 21.9 °F 21.0 °F 81% 30.29 in 10.0 mi SSW 3.5 mph - N/A   Overcast
10:53 PM 23.0 °F - 19.0 °F 85% 30.29 in 10.0 mi Calm Calm - N/A   Mostly Cloudy